Regional Weather Roundup
Issued by NWS Newport/Morehead, NC

Current Version | Previous Version | Graphics & Text | Print | Product List | Glossary Off
Versions: 1 2 3 4 5 6 7 8 9 10 11 12 13 14 15 16 17 18 19 20 21 22 23 24 25 26 27 28 29 30 31 32 33 34 35 36 37 38 39 40 41 42 43 44 45 46 47 48 49 50
253 ASUS42 KMHX 241813 RWRMHX WEATHER ROUNDUP FOR EASTERN NORTH CAROLINA NATIONAL WEATHER SERVICE NEWPORT/MOREHEAD CITY NC 200 PM EDT SUN JUL 24 2016 NOTE: "FAIR" INDICATES FEW OR NO CLOUDS BELOW 12,000 FEET WITH NO SIGNIFICANT WEATHER AND/OR OBSTRUCTIONS TO VISIBILITY NCZ015>017-031-032-045>047-102-103-241900- NORTH COAST CITY SKY/WX TMP DP RH WIND PRES REMARKS EDENTON SUNNY 94 72 47 SW6 30.01F HX 101 ELIZABETH CITY MOSUNNY 94 74 52 W8 30.00F HX 104 KITTY HAWK PTCLDY 99 74 44 W3 30.00F HX 111 MANTEO N/A 90 81 74 S12 30.02F HX 110 $$ NCZ045>047-081-094-103-104-241900- CENTRAL COAST CITY SKY/WX TMP DP RH WIND PRES REMARKS FRISCO SUNNY 89 79 72 SW8 30.04S HX 104 $$ NCZ095-097-098-100-101-241900- SOUTHERN COAST CITY SKY/WX TMP DP RH WIND PRES REMARKS BEAUFORT MOSUNNY 88 79 74 SW14 30.05R HX 103 CEDAR ISLAND NOT AVBL JACKSONVILLE MOSUNNY 92 76 59 S9 30.03S HX 104 PINEY ISLAND NOT AVBL WILMINGTON PTSUNNY 89 76 65 S6 30.03S HX 100 $$ NCZ011>013-027>030-043-044-078>080-089-090>093-098-241900- COASTAL PLAIN CITY SKY/WX TMP DP RH WIND PRES REMARKS AHOSKIE SUNNY 92 77 63 CALM 30.01S HX 105 CLINTON SUNNY 94 76 57 CALM 30.03S HX 107 ELIZABETHTOWN SUNNY 94 75 54 W5 30.03F HX 106 GOLDSBORO MOSUNNY 94 73 50 SW8 30.01F HX 103 GREENVILLE MOSUNNY 95 75 52 SW7 30.03F HX 107 HAVELOCK MOSUNNY 90 76 63 S9 30.04S HX 101 KENANSVILLE NOT AVBL KINSTON MOSUNNY 95 72 46 S3 30.02F HX 103 NEW BERN PTSUNNY 92 75 57 W6 30.04S HX 103 RICHLANDS MOSUNNY 93 76 57 S6 30.03F HX 105 ROCKY MOUNT SUNNY 94 76 55 S7 30.02F HX 106 WASHINGTON MOSUNNY 92 75 58 SW5 30.02S HX 103 WHITEVILLE MOSUNNY 91 76 62 CALM 30.02F HX 103 $$ AMZ130-135-150-152-154-156-158-170-250-252-270-ANZ085-086-088-633-658-670-241900- MARINE OBSERVATIONS STATION/POSITION TIME TEMP WIND PRES WAVE SWELL AIR SEA DIR/SP/G HT/PER HT/PER (UTC) (F) (DEG/KT/KT) (MB) (FT/S) (FT/S) CHESAPEAKE LIGHT NOT AVBL 64 E VA BEACH 1750 81 80 220/ 8/ 10 1016.0 3/ 4 2/ 4 DUCK 1700 88 60 230/ 10/ 12 1015.8 2 E DUCK 1711 71 N/A 1/ 9 OREGON INLET 1700 84 84 190/ 12/ 16 1016.7 13E OREGON INLT 1800 83 N/A 2/ 8 2/ 8 HATTERAS CG 1700 86 83 210/ 9/ 13 1017.0 DIAMOND BUOY 1750 85 86 230/ 12/ 14 1017.4 2/ 8 2/ 8 CAPE LOOKOUT 1800 87 230/ 8/ 11 1017.2 BEAUFORT LAB 1700 87 82 210/ 8/ 12 1016.8 30 SE NEW RVR IN 1708 85 85 230/ 10/ 12 1017.6 30 SE NEW RVR IN 1725 85 N/A 2/ 9 27 SE WRIGHTSVLE 1708 85 85 230/ 8/ 12 1017.8 5 SE WRIGHTSVLE 1708 85 84 220/ 14/ 17 1018.1 225 S CAPE HAT 1750 83 86 170/ 4/ 6 1018.8 2/ 8 2/ 8 41 SE CHARLESTON 1750 85 86 250/ 8/ 8 1017.6 3/ 8 2/ 8 $$

USA.gov is the U.S. government's official web portal to all federal, state and local government web resources and services.